Tracking 30923 objects as of 1-Jul-2025
HD Live streaming from Space Station
objects crossing your sky now

THORAD DELTA 1 DEB

Track THORAD DELTA 1 DEB now!
10-day predictions


NORAD ID: 8311
Int'l Code: 1974-089BU
Perigee: 1,461.8 km
Apogee: 1,518.9 km
Inclination: 102.1 °
Period: 115.6 minutes
Semi major axis: 7861 km
RCS: 2.7637 m2 (large)
Launch date: November 15, 1974
Source: United States (US)
Launch site: AIR FORCE WESTERN TEST RANGE (AFWTR)

Note: This is SATELLITE DEBRIS
Your satellite tracking list
Your tracking list is empty




NASA's NSSDC Master Catalog

Two Line Element Set (TLE):
1  8311U 74089BU  25181.55993737 -.00000026  00000-0  13866-3 0  9992
2  8311 102.1061 148.5340 0036305 306.6975 164.1151 12.45535136301653
Source of the keplerian elements: AFSPC